Regional Weather Roundup
Issued by NWS

Home | Current Version | Previous Version | Graphics & Text | Print | Product List | Glossary On
Versions: 1 2 3 4 5 6 7 8 9 10 11 12 13 14 15 16 17 18 19 20 21 22 23 24 25 26 27 28 29 30 31 32 33 34 35 36 37 38 39 40 41 42 43 44 45 46 47 48 49 50
000
ASUS45 KTFX 060604
RWRMT
MONTANA HOURLY WEATHER ROUNDUP
NATIONAL WEATHER SERVICE GREAT FALLS MT
1104 PM MST THU MAR 5 2015

NOTE: "FAIR" INDICATES FEW OR NO CLOUDS BELOW 12000 FEET WITH NO
SIGNIFICANT WEATHER AND/OR OBSTRUCTIONS TO VISIBILITY.

* THESE STATIONS ARE NOT UNDER NWS QUALITY CONTROL. THEY DO NOT
   REPORT WEATHER SUCH AS PRECIPITATION OR FOG.

MTZ001>007-043-060700-
WEST OF THE DIVIDE
CITY           SKY/WX    TMP DP  RH WIND       PRES   REMARKS
KALISPELL      CLOUDY    28  23  81 CALM      30.29R
MISSOULA       PTCLDY    32  19  59 W3        30.32S
BUTTE          PTCLDY    27  18  69 CALM      30.27R
MULLAN PASS    CLEAR     28  14  56 CALM      30.28R
* ANACONDA     PTCLDY    39  10  30 W6         N/A   WCI  35
* ESSEX        N/A       24  16  71 NW1        N/A
* LINCOLN      N/A       33  10  38 S3G8       N/A
* LOOKOUT PASS N/A       30  19  64 N2         N/A
* POLSON       N/A       34  14  44 S2         N/A
* RONAN APT    PTCLDY    34  25  70 N/A        N/A
* SEELEY LAKE  N/A       22  13  68 NE2        N/A
* THOMP F APT  PTCLDY    27  11  51 N3         N/A
$$

MTZ008-052>055-060700-
SOUTHWEST MONTANA
CITY           SKY/WX    TMP DP  RH WIND       PRES   REMARKS
BOZEMAN        PTCLDY    27  19  72 SE6       30.25R WCI  20
DILLON         PTCLDY    34  14  44 SW12      30.27R WCI  25
* W YELLOWSTON CLEAR     17  10  74 N/A        N/A
* THREE FORKS  PTCLDY    30  12  47 N/A        N/A
* BOULDER HILL N/A       35   6  29 S3         N/A
* MONIDA PASS  N/A       22  11  62 SE14       N/A   WCI   9
* RAYNOLDS PAS N/A       17   3  54 S6         N/A   WCI   8
* WHITEHALL    N/A       33   9  36 W9         N/A   WCI  25
* WISE RIVER   N/A       33  10  38 SW7        N/A   WCI  27
$$

MTZ009>010-012-014-046-048-049-054-060700-
EAST SLOPES AND CENTRAL MONTANA
CITY           SKY/WX    TMP DP  RH WIND       PRES   REMARKS
CUT BANK       PTCLDY    39  16  39 W28G39    30.07R WCI  27
GREAT FALLS    PTCLDY    34  16  48 SW10      30.12S WCI  26
HELENA         PTCLDY    43  12  28 N/A       30.22R
* DEARBORN     N/A       45  14  28 SE3G12     N/A
* EAST GLACIER N/A       35  13  40 W30G38     N/A   WCI  22
* MONARCH      N/A       36   7  30 SW12G17    N/A   WCI  28
* PENDROY      N/A       39  17  41 W22G29     N/A   WCI  29
* ROGERS PASS  N/A       34  10  37 SE17G26    N/A   WCI  23
* SWEET GRASS  N/A       38  19  46 W20G27     N/A   WCI  28
$$

MTZ011-013-016-021-035-040-045-047-050-051-060700-
NORTH CENTRAL MONTANA
CITY           SKY/WX    TMP DP  RH WIND       PRES   REMARKS
HAVRE          MOCLDY    36  19  50 CALM      30.08S
LEWISTOWN      PTCLDY    32  19  59 W8        30.12R WCI  25
* N BAR RANCH  CLEAR     28  18  66 CALM      30.11S
* CHESTER      N/A       37  14  39 W8G13      N/A   WCI  31
* DENTON       N/A       35  17  48 W1         N/A
* GEYSER       N/A       35  12  38 W10        N/A   WCI  27
* JUDITH GAP   N/A       32  15  49 SW4        N/A
* LOMA         N/A       33  17  52 SW7        N/A   WCI  27
$$

MTZ017>020-022>027-061-062-060700-
NORTHEAST MONTANA
CITY           SKY/WX    TMP DP  RH WIND       PRES   REMARKS
GLASGOW        CLOUDY    30  19  64 SW9       30.06S WCI  22
GLENDIVE       CLOUDY    34  18  52 NW10      30.07S WCI  26
JORDAN         CLEAR     27  19  72 W8        30.08R WCI  19
SIDNEY         CLEAR     28  18  66 W9        30.08R WCI  19
WOLF POINT     CLOUDY    34  21  59 NE3       30.07R
* BEAVER HILL  N/A       32  15  49 W8         N/A   WCI  25
* CIRCLE       N/A       35  20  54 W4         N/A
* LINDSAY DVD  N/A       38  17  42 W11G17     N/A   WCI  31
* NAVAJO       N/A       27  20  75 NW11       N/A   WCI  17
* SACO         N/A       35  20  54 SE4        N/A
$$

MTZ028>042-056>058-060700-
SOUTHCENTRAL AND SOUTHEAST MONTANA
CITY           SKY/WX    TMP DP  RH WIND       PRES   REMARKS
BAKER          PTCLDY    30  16  56 W12       30.07S WCI  20
BILLINGS       CLOUDY    39  14  36 SW22      30.15S WCI  29
LIVINGSTON     MOCLDY    43  12  28 W24G32    30.19R
MILES CITY     PTCLDY    34  16  48 N/A       30.09S
* LAUREL APT   MOCLDY    36  12  37 N/A        N/A
* ROUNDUP APT  MOCLDY    37  12  36 N/A        N/A
* ALZADA       N/A       29  20  69 NW3        N/A
* HYSHAM       N/A       38   9  30 W3         N/A
* LAME DEER    N/A       34  16  48 SW10       N/A   WCI  26
* REED POINT   N/A       46  16  30 W16G24     N/A
$$

REGIONAL REPORTS...DAKOTAS
CITY           SKY/WX    TMP DP  RH WIND       PRES   REMARKS
WILLISTON      PTCLDY    30  19  64 NW10      30.04R WCI  21
DICKINSON      CLOUDY    30  14  51 W14       30.00S WCI  19
CROSBY         CLEAR     21  18  88 NW12      30.03R WCI   9
WATFORD CITY   CLEAR     28  19  69 W7        30.01S WCI  21
BISMARCK       PTCLDY    25  12  58 W6        30.02F WCI  18
GRAND FORKS    CLOUDY    19  10  68 S13       29.96F WCI   6
FARGO          CLOUDY    18   9  68 S14       30.03F WCI   4
BUFFALO SD     CLEAR     27  14  58 W10       30.01F WCI  18
RAPID CITY     PTCLDY    30  16  56 W3        30.12F
$$

REGIONAL REPORTS...WYOMING/IDAHO/WASHINGTON
CITY           SKY/WX    TMP DP  RH WIND       PRES   REMARKS
GILLETTE       PTCLDY    32  18  56 SW7       30.13F WCI  25
SHERIDAN       PTCLDY    30  18  61 CALM      30.15S
CODY           PTCLDY    39  10  30 W17G25    30.18S WCI  30
YELLOWSTONE LA PTCLDY    10   3  73 CALM      30.35S
SALMON         PTCLDY    27  16  63 S3        30.34R
MULLAN PASS    CLEAR     28  14  56 CALM      30.28S
SAND POINT     CLEAR     28  23  81 CALM      30.33S
SPOKANE        MOCLDY    34  25  70 S3        30.32R

$$



USA.gov is the U.S. government's official web portal to all federal, state and local government web resources and services.